�N����,����,�~����,�C��,���x,�C��,����,���ϕ���,�ő�u�ԕ���,�ő厞����,���˗�,�I�_���x,�n�����x,�ő啗���N��,DTYPE
"19/07/18","00:10",0.0,24.4,87.0,1007.6,281.6,0.7,1.6,328.8,0.00,22.1,25.7,"00:01:52",1
"19/07/18","00:20",0.0,24.4,87.0,1007.4,295.9,1.1,1.8,240.4,0.00,22.1,25.8,"00:12:00",1
"19/07/18","00:30",0.0,24.5,86.8,1007.6,335.0,1.2,2.2,337.8,0.00,22.2,25.9,"00:22:16",1
"19/07/18","00:40",0.0,24.5,87.1,1007.4,8.6,0.6,1.6,318.5,0.00,22.3,25.7,"00:30:32",1
"19/07/18","00:50",0.0,24.4,87.0,1007.4,196.6,0.2,1.0,322.8,0.00,22.1,25.7,"00:49:52",1
"19/07/18","01:00",0.0,24.3,87.1,1007.4,294.1,0.8,1.3,296.6,0.00,22.1,25.6,"00:55:44",1
"19/07/18","01:10",0.0,24.3,87.2,1007.6,289.8,0.8,1.9,336.3,0.00,22.1,25.8,"01:09:36",1
"19/07/18","01:20",0.0,24.2,87.1,1007.4,306.3,0.8,2.9,341.8,0.00,22.0,25.7,"01:10:08",1
"19/07/18","01:30",0.0,24.2,87.2,1007.4,318.2,0.8,1.4,327.4,0.00,22.0,25.6,"01:21:28",1
"19/07/18","01:40",0.0,24.1,87.2,1007.1,284.1,0.6,1.0,323.2,0.00,21.9,25.5,"01:30:16",1
"19/07/18","01:50",0.0,24.1,87.4,1007.1,307.2,0.8,1.6,322.8,0.00,21.9,25.6,"01:42:32",1
"19/07/18","02:00",0.0,24.4,87.8,1007.1,332.4,1.1,1.6,336.8,0.00,22.3,25.6,"01:58:08",1
"19/07/18","02:10",0.0,24.1,88.0,1007.1,301.0,0.8,1.4,334.7,0.00,22.0,25.2,"02:01:12",1
"19/07/18","02:20",0.0,24.0,88.3,1007.1,282.6,0.5,0.6,298.3,0.00,22.0,25.4,"02:10:24",1
"19/07/18","02:30",0.0,23.9,88.5,1007.6,297.7,0.6,1.1,309.4,0.00,21.9,25.4,"02:27:52",1
"19/07/18","02:40",0.0,23.9,88.6,1007.1,305.2,1.0,1.3,314.7,0.00,21.9,25.5,"02:34:08",1
"19/07/18","02:50",0.0,24.0,88.7,1007.4,280.7,0.7,1.1,260.5,0.00,22.1,25.4,"02:44:16",1
"19/07/18","03:00",0.0,24.0,88.5,1007.4,317.7,1.0,1.9,334.9,0.00,22.0,25.2,"02:53:12",1
"19/07/18","03:10",0.0,24.1,88.8,1006.7,321.8,0.7,1.1,338.1,0.00,22.2,25.3,"03:09:36",1
"19/07/18","03:20",0.0,24.1,88.9,1006.9,320.0,1.0,1.3,331.5,0.00,22.2,25.3,"03:12:00",1
"19/07/18","03:30",0.0,23.9,89.0,1006.9,288.9,0.7,1.1,259.0,0.00,22.0,25.3,"03:24:48",1
"19/07/18","03:40",0.0,23.9,89.3,1006.7,301.0,0.7,1.3,323.3,0.00,22.1,25.2,"03:30:02",1
"19/07/18","03:50",0.0,24.0,89.6,1006.9,329.2,1.0,1.3,325.7,0.00,22.2,25.2,"03:40:08",1
"19/07/18","04:00",0.0,23.9,89.7,1006.4,316.4,0.7,1.2,322.1,0.00,22.1,25.2,"03:52:32",1
"19/07/18","04:10",0.0,23.8,89.7,1007.1,297.8,0.8,1.1,311.1,0.00,22.0,25.2,"04:06:16",1
"19/07/18","04:20",0.0,23.9,90.2,1007.1,321.3,0.8,1.3,348.9,0.00,22.2,25.3,"04:17:36",1
"19/07/18","04:30",0.0,24.0,90.2,1006.9,331.0,0.8,1.2,335.3,0.00,22.3,25.0,"04:20:24",1
"19/07/18","04:40",0.0,23.9,90.1,1007.1,290.3,0.7,1.1,316.5,0.00,22.2,25.3,"04:31:36",1
"19/07/18","04:50",0.0,23.9,90.2,1007.4,303.8,0.8,1.4,326.7,0.00,22.2,25.2,"04:49:20",1
"19/07/18","05:00",0.0,24.0,90.5,1007.1,286.9,0.5,0.9,326.0,0.00,22.4,25.1,"04:50:08",1
"19/07/18","05:10",0.0,24.0,90.3,1007.1,310.3,0.7,1.1,320.6,0.00,22.4,25.1,"05:06:40",1
"19/07/18","05:20",0.0,24.1,90.6,1006.9,336.7,1.0,1.7,340.5,0.00,22.5,24.9,"05:12:08",1
"19/07/18","05:30",0.0,24.1,90.5,1007.1,327.9,1.0,1.6,331.1,0.00,22.5,25.0,"05:20:08",1
"19/07/18","05:40",0.0,24.1,90.7,1006.7,332.9,0.8,1.1,335.7,0.00,22.5,24.9,"05:32:16",1
"19/07/18","05:50",0.0,24.1,90.8,1006.9,313.1,0.7,1.3,339.3,0.00,22.5,25.0,"05:40:24",1
"19/07/18","06:00",0.0,24.1,90.7,1006.9,296.3,0.7,1.0,323.1,0.00,22.5,24.8,"05:56:56",1
"19/07/18","06:10",0.0,24.1,90.9,1007.1,317.7,0.8,1.1,332.5,0.00,22.6,24.9,"06:07:52",1
"19/07/18","06:20",0.0,24.2,91.0,1007.4,316.1,1.0,1.3,327.5,0.00,22.7,25.1,"06:15:36",1
"19/07/18","06:30",0.0,24.1,91.0,1007.1,295.2,0.7,1.2,309.3,0.00,22.6,25.0,"06:29:20",1
"19/07/18","06:40",0.0,24.2,91.1,1007.4,320.8,0.8,1.6,343.8,0.00,22.7,24.9,"06:37:20",1
"19/07/18","06:50",0.0,24.3,91.4,1007.1,313.2,0.8,1.2,333.0,0.00,22.8,25.2,"06:42:56",1
"19/07/18","07:00",0.0,24.3,91.3,1007.4,305.6,0.7,1.0,303.6,0.00,22.8,25.2,"06:50:32",1
"19/07/18","07:10",0.0,24.3,91.6,1007.4,290.3,0.5,1.1,342.0,0.00,22.9,25.0,"07:03:36",1
"19/07/18","07:20",0.0,24.4,91.7,1007.1,309.3,0.7,1.3,334.9,0.00,23.0,25.1,"07:16:24",1
"19/07/18","07:30",0.0,24.5,91.5,1006.9,301.5,0.7,1.2,328.5,0.02,23.1,25.1,"07:20:08",1
"19/07/18","07:40",0.0,24.6,91.3,1007.6,322.3,0.8,1.3,330.2,0.02,23.1,25.2,"07:35:36",1
"19/07/18","07:50",0.0,24.8,91.4,1006.9,327.6,1.0,1.6,332.1,0.03,23.3,25.0,"07:43:12",1
"19/07/18","08:00",0.0,25.0,91.0,1007.1,318.9,0.8,1.4,339.2,0.05,23.5,25.1,"07:59:04",1
"19/07/18","08:10",0.0,25.0,90.1,1007.4,302.8,0.8,1.6,337.9,0.03,23.3,25.1,"08:00:56",1
"19/07/18","08:20",0.0,25.3,89.5,1006.9,263.6,0.5,1.3,238.8,0.07,23.5,25.1,"08:18:48",1
"19/07/18","08:30",0.0,25.4,89.1,1007.4,297.6,0.6,1.1,313.2,0.04,23.5,25.2,"08:23:52",1
"19/07/18","08:40",0.8,25.5,89.1,1006.9,336.3,0.5,1.2,327.8,0.02,23.6,25.2,"08:32:08",1
"19/07/18","08:50",1.2,25.5,89.3,1007.1,302.6,0.6,1.3,346.0,0.01,23.6,25.1,"08:49:28",1
"19/07/18","09:00",1.8,25.1,89.8,1007.4,12.8,0.5,1.0,347.7,0.01,23.3,25.4,"08:50:08",1
"19/07/18","09:10",0.0,25.1,90.5,1007.1,355.7,1.0,2.0,351.6,0.02,23.5,25.2,"09:07:12",1
"19/07/18","09:20",0.0,25.0,90.7,1007.1,6.4,0.7,1.6,358.9,0.04,23.4,25.3,"09:10:32",1
"19/07/18","09:30",0.0,25.0,91.1,1007.1,320.5,0.1,0.6,10.5,0.05,23.5,25.2,"09:21:52",1
"19/07/18","09:40",0.0,25.1,91.1,1006.7,211.7,0.1,0.4,254.0,0.09,23.6,25.1,"09:30:32",1
"19/07/18","09:50",0.0,25.1,90.5,1006.9,168.3,0.2,0.9,122.6,0.09,23.5,25.4,"09:44:40",1
"19/07/18","10:00",0.0,25.4,89.8,1006.9,166.0,0.6,1.1,113.0,0.12,23.6,25.3,"09:54:16",1
"19/07/18","10:10",0.0,25.4,89.7,1006.9,77.2,0.3,1.1,159.1,0.11,23.6,25.4,"10:05:20",1
"19/07/18","10:20",0.0,25.9,88.8,1007.4,302.8,0.5,1.3,329.0,0.09,23.9,25.5,"10:19:52",1
"19/07/18","10:30",0.0,25.7,88.5,1007.1,326.5,1.2,1.8,325.9,0.09,23.7,25.6,"10:25:12",1
"19/07/18","10:40",0.0,25.9,88.8,1007.1,316.5,0.7,1.6,323.3,0.14,23.9,25.6,"10:30:32",1
"19/07/18","10:50",0.0,26.2,87.1,1006.9,358.6,0.5,1.1,313.5,0.18,23.9,25.8,"10:45:44",1
"19/07/18","11:00",0.0,26.4,87.3,1006.9,302.6,0.8,2.7,348.7,0.20,24.2,25.8,"10:58:00",1
"19/07/18","11:10",0.0,26.4,85.6,1007.1,337.4,1.2,2.5,340.5,0.19,23.8,25.9,"11:04:08",1
"19/07/18","11:20",0.0,26.6,83.8,1006.7,332.3,0.6,1.9,343.2,0.18,23.7,26.0,"11:19:20",1
"19/07/18","11:30",0.0,26.9,83.2,1006.7,325.2,0.7,2.1,339.9,0.21,23.8,26.1,"11:29:12",1
"19/07/18","11:40",0.0,26.8,83.5,1006.0,333.1,0.7,1.9,1.1,0.23,23.8,26.2,"11:35:44",1
"19/07/18","11:50",0.0,27.6,83.8,1005.7,340.7,0.7,1.8,353.0,0.29,24.7,26.3,"11:42:24",1
"19/07/18","12:00",0.0,27.7,83.1,1006.2,335.5,0.8,2.4,343.6,0.24,24.6,26.4,"11:58:16",1
"19/07/18","12:10",0.0,27.9,82.0,1006.0,342.4,1.1,2.6,350.3,0.25,24.6,26.5,"12:06:32",1
"19/07/18","12:20",0.0,28.0,80.9,1006.0,337.1,1.1,2.1,341.9,0.27,24.5,26.7,"12:18:00",1
"19/07/18","12:30",0.0,28.2,78.9,1006.0,11.1,1.0,1.9,353.9,0.33,24.2,26.7,"12:20:32",1
"19/07/18","12:40",0.0,28.7,79.8,1006.2,14.8,0.7,2.0,342.5,0.31,24.9,26.8,"12:37:12",1
"19/07/18","12:50",0.0,29.1,78.2,1006.2,328.6,0.6,1.3,339.7,0.29,25.0,27.1,"12:41:04",1
"19/07/18","13:00",0.0,29.0,76.5,1006.0,27.7,0.7,2.0,348.9,0.29,24.5,27.4,"12:52:32",1
"19/07/18","13:10",0.0,29.0,76.3,1006.0,6.7,0.7,1.8,16.2,0.28,24.4,27.4,"13:08:18",1
"19/07/18","13:20",0.0,29.1,75.2,1006.2,67.1,0.6,1.3,351.4,0.23,24.3,27.2,"13:10:32",1
"19/07/18","13:30",0.0,29.1,75.4,1006.2,352.1,1.0,2.1,31.4,0.22,24.3,27.5,"13:22:32",1
"19/07/18","13:40",0.0,29.5,73.8,1005.7,42.3,0.6,1.7,340.7,0.22,24.4,27.5,"13:34:48",1
"19/07/18","13:50",0.0,29.6,74.3,1005.7,56.0,0.7,1.6,351.6,0.22,24.6,27.8,"13:44:16",1
"19/07/18","14:00",0.0,29.4,74.2,1005.5,40.7,0.8,2.4,80.5,0.12,24.4,27.6,"13:58:08",1
"19/07/18","14:10",0.0,29.4,73.3,1005.0,79.4,0.6,1.6,36.3,0.05,24.2,27.8,"14:02:00",1
"19/07/18","14:20",1.2,29.0,75.9,1003.8,316.1,0.6,1.3,347.1,0.03,24.4,27.6,"14:10:24",1
"19/07/18","14:30",0.0,27.6,83.0,1003.4,298.1,0.8,2.2,355.0,0.07,24.5,27.4,"14:20:02",1
"19/07/18","14:40",0.0,27.3,86.4,1003.8,339.2,1.5,2.5,342.2,0.12,24.9,27.4,"14:30:24",1
"19/07/18","14:50",0.0,27.0,87.0,1003.8,342.1,1.5,2.7,349.6,0.11,24.7,27.6,"14:49:52",1
"19/07/18","15:00",0.0,27.2,86.8,1004.1,335.4,1.6,3.1,347.5,0.08,24.8,27.4,"14:59:28",1
"19/07/18","15:10",0.0,27.2,87.1,1003.8,339.4,1.8,3.7,342.6,0.05,24.9,27.2,"15:04:32",1
"19/07/18","15:20",0.0,27.4,87.7,1003.8,306.8,1.0,2.9,343.8,0.04,25.2,27.4,"15:15:04",1
"19/07/18","15:30",0.0,27.2,87.6,1004.3,311.4,1.2,2.0,310.5,0.05,25.0,27.2,"15:26:24",1
"19/07/18","15:40",0.0,27.1,88.1,1004.1,315.3,1.3,2.5,334.5,0.07,25.0,27.3,"15:33:20",1
"19/07/18","15:50",0.0,27.1,87.9,1004.3,291.9,0.8,2.7,336.4,0.06,25.0,27.3,"15:46:08",1
"19/07/18","16:00",0.4,27.2,88.5,1004.1,303.4,0.7,1.9,331.6,0.05,25.2,27.3,"15:56:00",1
"19/07/18","16:10",0.2,26.9,88.3,1004.5,322.5,1.0,2.4,335.9,0.04,24.8,27.3,"16:06:00",1
"19/07/18","16:20",0.2,26.6,88.7,1004.8,284.9,1.0,3.2,335.2,0.02,24.6,27.0,"16:17:44",1
"19/07/18","16:30",0.0,26.4,88.6,1005.0,275.4,1.0,3.5,318.6,0.01,24.4,27.0,"16:28:08",1
"19/07/18","16:40",0.0,26.1,87.7,1005.2,301.2,1.1,2.5,321.8,0.01,23.9,26.9,"16:31:20",1
"19/07/18","16:50",0.0,25.9,87.3,1004.8,308.6,1.1,3.2,348.3,0.01,23.7,27.1,"16:46:16",1
"19/07/18","17:00",0.2,25.8,87.0,1005.0,293.4,0.7,2.0,343.4,0.01,23.5,26.8,"16:57:52",1
"19/07/18","17:10",0.0,25.7,87.0,1004.8,271.2,1.1,2.9,205.9,0.01,23.4,26.9,"17:06:40",1
"19/07/18","17:20",0.2,25.8,86.9,1005.5,6.0,0.7,1.7,17.6,0.00,23.5,26.7,"17:15:44",1
"19/07/18","17:30",0.2,25.6,87.9,1005.2,352.5,0.8,1.6,3.6,0.00,23.5,26.7,"17:21:44",1
"19/07/18","17:40",0.2,25.5,88.9,1005.2,346.3,0.7,1.4,336.7,0.00,23.6,26.6,"17:33:44",1
"19/07/18","17:50",0.2,25.2,89.3,1005.2,306.4,0.5,1.1,73.4,0.00,23.4,26.5,"17:48:56",1
"19/07/18","18:00",0.2,25.1,90.0,1005.7,316.1,0.6,1.7,337.0,0.00,23.4,26.5,"17:56:08",1
"19/07/18","18:10",0.4,24.9,89.8,1005.7,223.6,1.6,3.5,206.5,0.00,23.1,26.4,"18:01:44",1
"19/07/18","18:20",0.2,25.1,90.3,1005.7,335.6,1.0,2.0,344.0,0.00,23.4,26.4,"18:17:20",1
"19/07/18","18:30",0.2,25.0,90.7,1005.5,279.6,0.5,1.6,343.3,0.00,23.4,26.0,"18:20:48",1
"19/07/18","18:40",0.4,24.8,91.2,1006.2,314.6,0.6,1.8,348.8,0.00,23.3,26.2,"18:32:32",1
"19/07/18","18:50",0.4,24.6,91.5,1005.5,342.8,1.0,1.9,352.3,0.00,23.2,26.1,"18:46:32",1
"19/07/18","19:00",0.4,24.4,91.7,1006.0,7.0,0.5,1.4,318.4,0.00,23.0,25.9,"18:59:44",1
"19/07/18","19:10",0.8,24.2,91.8,1005.2,71.2,0.5,1.3,340.0,0.00,22.8,26.0,"19:01:04",1
"19/07/18","19:20",0.8,24.1,92.4,1005.7,10.4,0.8,1.7,322.7,0.00,22.8,25.8,"19:16:40",1
"19/07/18","19:30",0.2,24.1,92.5,1005.2,333.0,1.0,1.7,335.6,0.00,22.8,25.7,"19:28:56",1
"19/07/18","19:40",0.2,23.9,92.7,1005.2,358.8,0.7,1.2,320.5,0.00,22.7,25.9,"19:30:16",1
"19/07/18","19:50",0.0,23.9,93.0,1005.7,334.6,0.5,1.2,349.0,0.00,22.7,25.7,"19:41:04",1
"19/07/18","20:00",0.0,23.8,93.2,1005.7,277.9,0.3,0.6,295.5,0.00,22.7,25.5,"19:56:48",1
"19/07/18","20:10",0.0,23.8,93.2,1005.7,280.8,0.5,1.0,306.7,0.00,22.7,25.6,"20:00:02",1
"19/07/18","20:20",0.0,23.7,93.4,1006.0,274.8,0.5,1.1,263.1,0.00,22.6,25.6,"20:10:48",1
"19/07/18","20:30",0.0,23.5,93.5,1006.4,261.9,0.7,1.7,265.0,0.00,22.4,25.5,"20:27:12",1
"19/07/18","20:40",0.2,23.3,93.4,1006.9,288.6,1.0,2.9,331.1,0.00,22.2,25.3,"20:39:44",1
"19/07/18","20:50",0.2,23.3,93.7,1006.9,329.5,1.6,2.9,335.1,0.00,22.3,25.4,"20:41:12",1
"19/07/18","21:00",0.2,23.3,93.7,1006.9,328.7,1.0,2.0,333.3,0.00,22.3,25.1,"20:56:56",1
"19/07/18","21:10",0.0,23.3,93.8,1007.4,319.7,0.6,1.3,333.9,0.00,22.3,25.3,"21:08:32",1
"19/07/18","21:20",1.6,23.3,93.8,1006.9,338.2,1.0,1.6,341.8,0.00,22.3,25.3,"21:11:12",1
"19/07/18","21:30",1.0,23.2,94.0,1006.9,285.9,0.3,0.8,333.5,0.00,22.2,25.2,"21:20:08",1
"19/07/18","21:40",0.2,23.2,94.3,1007.1,302.6,0.1,0.5,298.8,0.00,22.3,24.9,"21:32:56",1
"19/07/18","21:50",0.0,23.3,94.3,1006.9,345.6,0.6,1.4,337.1,0.00,22.4,25.1,"21:44:08",1
"19/07/18","22:00",0.0,23.3,94.2,1006.9,342.3,0.5,1.2,345.6,0.00,22.4,25.1,"21:52:40",1
"19/07/18","22:10",0.0,23.2,94.3,1006.9,337.8,0.7,1.6,339.9,0.00,22.3,24.9,"22:09:52",1
"19/07/18","22:20",0.0,23.1,94.5,1006.7,336.9,0.8,1.7,342.8,0.00,22.2,25.1,"22:10:40",1
"19/07/18","22:30",0.0,23.2,94.6,1007.4,261.6,0.2,0.6,236.3,0.00,22.3,24.9,"22:28:32",1
"19/07/18","22:40",0.0,23.1,94.7,1006.9,283.1,0.3,1.0,243.9,0.00,22.2,25.0,"22:38:00",1
"19/07/18","22:50",0.0,23.1,94.7,1007.4,321.1,0.6,0.9,327.0,0.00,22.2,25.0,"22:40:32",1
"19/07/18","23:00",0.0,23.2,94.9,1007.4,343.8,0.6,1.3,336.6,0.00,22.4,25.0,"22:59:12",1
"19/07/18","23:10",0.0,23.3,94.9,1007.4,337.7,0.7,1.3,347.4,0.00,22.5,25.0,"23:00:56",1
"19/07/18","23:20",0.0,23.3,94.9,1007.4,278.2,0.6,1.2,229.5,0.00,22.5,24.9,"23:17:20",1
"19/07/18","23:30",0.0,23.3,95.1,1006.9,343.0,0.8,1.4,343.6,0.00,22.5,24.9,"23:25:04",1
"19/07/18","23:40",0.2,23.4,95.1,1006.9,353.5,0.7,1.1,353.9,0.00,22.6,24.8,"23:30:24",1
"19/07/18","23:50",0.0,23.5,95.0,1007.6,260.4,0.7,1.1,223.7,0.00,22.7,24.7,"23:46:08",1
"19/07/18","24:00",0.2,23.4,95.1,1007.1,259.3,0.6,1.4,234.2,0.00,22.6,24.7,"23:55:52",1
